Regional Weather Roundup
Issued by NWS Newport/Morehead, NC

Current Version | Previous Version | Text Only | Print | Product List | Glossary On
Versions: 1 2 3 4 5 6 7 8 9 10 11 12 13 14 15 16 17 18 19 20 21 22 23 24 25 26 27 28 29 30 31 32 33 34 35 36 37 38 39 40 41 42 43 44 45 46 47 48 49 50
000
ASUS42 KMHX 252013
RWRMHX
WEATHER ROUNDUP FOR EASTERN NORTH CAROLINA
NATIONAL WEATHER SERVICE NEWPORT/MOREHEAD CITY NC
300 PM EST SUN FEB 25 2018

NOTE: "FAIR" INDICATES FEW OR NO CLOUDS BELOW 12,000 FEET
WITH NO SIGNIFICANT WEATHER AND/OR OBSTRUCTIONS TO VISIBILITY

NCZ015>017-031-032-045>047-102-103-252100-
NORTH COAST

CITY           SKY/WX    TMP DP  RH WIND       PRES   REMARKS
EDENTON        FAIR      78  58  49 W7        30.03S
ELIZABETH CITY FAIR      79  57  46 W10       30.00F
KITTY HAWK     DRIZZLE   67  58  71 CALM      30.01R
MANTEO         LGT RAIN  69  62  78 NW8       30.04R

$$

NCZ045>047-081-094-103-104-252100-
CENTRAL COAST

CITY           SKY/WX    TMP DP  RH WIND       PRES   REMARKS
FRISCO         FAIR      72  65  78 SW14      30.05F

$$

NCZ095-097-098-100-101-252100-
SOUTHERN COAST

CITY           SKY/WX    TMP DP  RH WIND       PRES   REMARKS
BEAUFORT       FAIR      72  65  78 SW21      30.05F
CEDAR ISLAND   NOT AVBL
JACKSONVILLE   PTSUNNY   80  65  59 S14G20    30.02S HAZE
PINEY ISLAND   NOT AVBL
WILMINGTON     FAIR      80  63  55 S14G24    30.04F


$$

NCZ011>013-027>030-043-044-078>080-089-090>093-098-252100-
COASTAL PLAIN

CITY           SKY/WX    TMP DP  RH WIND       PRES   REMARKS
AHOSKIE        CLOUDY    73  55  53 S3        30.01R
CLINTON        FAIR      72  57  59 N6G18     30.06R
ELIZABETHTOWN  NOT AVBL
GOLDSBORO      FAIR      76  55  47 NW15G21   30.03S
GREENVILLE     FAIR      77  59  53 NW6       30.05R
HAVELOCK       PTSUNNY   77  67  71 SW20G28   30.04F SMOKE
KENANSVILLE    CLOUDY    75  57  53 NW14G33   30.05R
KINSTON        FAIR      77  57  50 NW13G20   30.04S
NEW BERN       PTSUNNY   78  61  55 W9        30.03S
RICHLANDS      FAIR      82  61  48 VRB7G20   30.03F
ROCKY MOUNT    CLOUDY    72  59  63 SW8       30.03S
WASHINGTON     PTSUNNY   83  56  39 W15G22    30.01F
WHITEVILLE     FAIR      82  60  47 SW9       30.03F

$$

AMZ130-135-150-152-154-156-158-170-250-252-270-ANZ085-086-088-633-658-670-252100-
MARINE OBSERVATIONS

STATION/POSITION TIME  TEMP    WIND        PRES    WAVE   SWELL
                       AIR SEA DIR/SP/G            HT/PER HT/PER
                 (UTC) (F)     (DEG/KT/KT) (MB)    (FT/S) (FT/S)
CHESAPEAKE LIGHT NOT AVBL
64 E VA BEACH    1950   56 50  210/ 14/ 17 1016.1    4/ 5   2/ 9
DUCK             1948   74 45  280/ 13/ 18 1016.0
2 E DUCK         2000      47                N/A     2/10
OREGON INLET     1942   65 63  200/ 17/ 21 1016.4
13E OREGON INLT  1948      51                N/A     4/ 6   2/ 9
HATTERAS CG      1948   70 62  220/ 11/ 18 1017.5
DIAMOND BUOY     1950   74 73  230/ 19/ 25 1018.0    5/ 7   2/ 9
CAPE LOOKOUT     2000          210/ 13/ 17 1018.3
BEAUFORT LAB     1948   67 60  200/ 15/ 19 1017.7
30 SE NEW RVR IN 1908   72 71  220/ 16/ 21 1018.6
30 SE NEW RVR IN 2000      71                N/A     6/ 6   2/11
27 SE WRIGHTSVLE 1908   70 70  220/ 17/ 23 1018.8
5 SE WRIGHTSVLE  1908   63 58  220/ 14/ 17 1018.2
225 S CAPE HAT   1950   73 72  210/ 16/ 17 1021.8    5/ 9   3/ 9
41 SE CHARLESTON 1950   70 71  220/ 14/ 16 1019.4    4/ 9   3/ 9

$$



USA.gov is the U.S. government's official web portal to all federal, state and local government web resources and services.